Regional Weather Roundup
Issued by NWS

Home | Current Version | Previous Version | Graphics & Text | Print | Product List | Glossary On
Versions: 1 2 3 4 5 6 7 8 9 10 11 12 13 14 15 16 17 18 19 20 21 22 23 24 25 26 27 28 29 30 31 32 33 34 35 36 37 38 39 40 41 42 43 44 45 46 47 48 49 50
000
ASUS43 KLOT 031900
RWRIL

ILLINOIS REGIONAL WEATHER ROUNDUP
NATIONAL WEATHER SERVICE CHICAGO/ROMEOVILLE IL
200 PM CDT MON AUG 03 2015

NOTE: "FAIR" INDICATES FEW OR NO CLOUDS BELOW 12,000 FEET WITH NO
SIGNIFICANT WEATHER AND/OR OBSTRUCTIONS TO VISIBILITY.

* THESE STATIONS ARE NOT UNDER NWS QUALITY CONTROL. THEY ALSO MAY NOT
  REPORT WEATHER SUCH AS PRECIPITATION OR FOG.

ILZ001-002-007-009-015-016-024-032000-
NORTHWEST ILLINOIS

CITY           SKY/WX    TMP DP  RH WIND       PRES   REMARKS
MOLINE         SUNNY     82  53  36 NW8       29.91F HX  81
STERLING*      SUNNY     81  54  39 W9        29.88S HX  80
SAVANNA*       SUNNY     81  45  28 NW7G18    29.90F HX  80
$$

ILZ003-004-008-010-011-017-018-032000-
NORTH CENTRAL ILLINOIS

CITY           SKY/WX    TMP DP  RH WIND       PRES   REMARKS
ROCKFORD       MOSUNNY   81  50  33 NW9G20    29.89F HX  80
$$

ILZ005-006-012>014-019>023-032000-
NORTHEAST ILLINOIS

CITY           SKY/WX    TMP DP  RH WIND       PRES   REMARKS
CHICAGO-OHARE  MOSUNNY   80  48  32 NW13      29.86S
CHICAGO-MIDWAY MOSUNNY   83  49  30 NW15      29.85F HX  81
AURORA         SUNNY     80  51  36 NW10      29.89S HX  80
JOLIET*        SUNNY     82  56  41 NW8       29.87F HX  81
WAUKEGAN       SUNNY     78  49  35 W10       29.85S
DUPAGE AIRPORT SUNNY     79  48  33 W12G18    29.87F
WHEELING       SUNNY     81  45  28 W13       29.87  HX  80
ROMEOVILLE*    SUNNY     80  55  43 NW13      29.87F HX  80
NORTHERLY ISL    N/A     79  45  29 W10         N/A
$$

LMZ740>746-032000-
SOUTHERN LAKE MICHIGAN

STATION/POSITION SKY/WX   TEMP    WIND        PRES    VSBY  WAVE
                          AIR SEA DIR/SP/G                  HT/PER
                          (F)     (DEG/KT/KT) (MB)    (MI)  (FT/S)
HARRISON CRIB              73      10/  8/ 10   N/A
BURNHAM HARBOR             79     300/  9/ 14   N/A
CALUMET HARBOR             75      20/  9/ 13   N/A
BURNS HARBOR               72      30/  7/  9 1011.9S
MICHIGAN CITY              73     330/  8/  9   N/A
MICHIGAN CITY 6N           71 74  360/ 10/ 12   N/A           3/ 4
ST. JOSEPH                 70 73  330/ 10/ 12   N/A           3/ 4
$$

ILZ025>027-034>036-040-047-049-050-058-095>099-032000-
WEST-CENTRAL ILLINOIS

CITY           SKY/WX    TMP DP  RH WIND       PRES   REMARKS
QUINCY         MOSUNNY   82  63  52 W7        29.94R HX  83
MACOMB*        SUNNY     80  60  51 N6        29.96R HX  81
$$

ILZ028>032-037-038-041>044-048-051>054-059>061-032000-
CENTRAL ILLINOIS

CITY           SKY/WX    TMP DP  RH WIND       PRES   REMARKS
DECATUR        PTSUNNY   86  64  47 W15G21    29.90R HX  87
PEORIA         SUNNY     83  59  44 N7        29.91S HX  83
SPRINGFIELD    MOSUNNY   86  68  54 W8        29.91S HX  89
TAYLORVILLE    NOT AVBL
$$

ILZ033-039-045-046-055>057-062-063-032000-
EAST-CENTRAL ILLINOIS

CITY           SKY/WX    TMP DP  RH WIND       PRES   REMARKS
CHAMPAIGN      MOSUNNY   85  67  54 W12       29.89R HX  87
DANVILLE*      MOSUNNY   85  69  58 W9        29.85S HX  89
MATTOON        MOSUNNY   89  62  40 NW15      29.88S HX  89
$$

ILZ079-100>102-032000-
SOUTHWEST ILLINOIS

CITY           SKY/WX    TMP DP  RH WIND       PRES   REMARKS
BELLEVILLE     SUNNY     92  68  45 NW8       29.89S HX  95
CAHOKIA*       SUNNY     94  64  37 NW10      29.90S HX  95
$$

ILZ064>066-069>071-074>076-080>082-084>086-088>090-092>094-032000-
SOUTH-CENTRAL ILLINOIS

CITY           SKY/WX    TMP DP  RH WIND       PRES   REMARKS
CARBONDALE     SUNNY     90  72  55 W8        29.90S HX  97
MARION         MOSUNNY   91  73  55 W15       29.91S HX 100
MT. VERNON     MOSUNNY   91  66  43 W9        29.90S HX  94
SALEM*         SUNNY     91  64  40 W8G18     29.90S HX  92
$$

ILZ067-068-072-073-078-083-087-091-032000-
SOUTHEAST ILLINOIS

CITY           SKY/WX    TMP DP  RH WIND       PRES   REMARKS
LAWRENCEVILLE  SUNNY     92  67  43 W15       29.87S HX  95
FLORA*         SUNNY     90  65  43 W9G17     29.89S HX  91
HARRISBURG*    SUNNY     92  70  48 W12       29.90S HX  97
ROBINSON*      SUNNY     88  69  51 W9        29.88S HX  92
CARMI*         MOSUNNY   89  65  45 W8        29.88S HX  91
$$

ABBREVIATIONS USED IN REMARKS
   TC - TEMPERATURE IN CELSIUS
  WCI - WIND CHILL INDEX
   HX - HEAT INDEX
  VSB - VISIBILITY
$$



USA.gov is the U.S. government's official web portal to all federal, state and local government web resources and services.